RH
15 17 25 29 32 32 28 34 51 58 62 65 65 63 55 44 34 19 16 13 16 17 22 24 24 23 24 24 18 14 9 16 19 21 21 28 33 33 33 24 29 34 34 35 39 39 39
30 27 26 29 34 42 46 52 59 66 68 69 70 68 64 54 46 24 18 19 18 14 14 23 21 20 29 29 16 11 10 17 20 19 17 22 30 30 28 27 31 33 35 35 40 38 35
73 74 74 75 73 73 73 74 75 76 77 77 76 73 70 65 55 28 19 21 20 21 23 22 21 25 25 26 18 12 14 17 18 18 22 26 28 34 26 30 29 31 40 42 42 40 39
80 80 81 81 81 80 79 78 77 77 78 77 77 75 74 68 57 28 26 20 21 26 26 27 22 22 30 20 13 14 12 15 17 15 19 21 26 28 31 29 30 36 31 37 40 43 43
83 84 85 87 89 91 90 84 81 81 80 78 77 76 72 68 60 32 28 30 23 22 25 24 22 25 27 15 17 15 14 16 17 16 14 12 22 31 30 36 37 39 38 35 42 39 46
100 98 99 100 98 97 96 97 93 90 90 85 79 78 78 74 64 38 30 30 25 20 17 17 17 24 20 19 18 16 14 17 18 19 22 20 24 33 36 39 48 35 38 28 28 38 43
98 98 98 98 99 100 100 99 93 93 94 88 86 81 77 72 69 41 34 29 35 36 32 31 25 21 17 18 17 16 15 16 16 21 25 18 25 32 24 26 25 20 21 22 16 25 31
88 88 86 87 91 93 95 93 90 90 87 87 86 88 85 75 72 44 36 41 50 56 59 30 23 21 17 20 20 17 14 18 18 26 20 22 27 21 16 15 16 18 20 17 17 19 20
85 84 84 85 90 92 91 92 88 89 94 87 84 92 91 76 66 50 43 46 52 67 65 39 25 21 20 20 20 22 19 16 17 21 24 28 25 15 15 16 16 16 17 16 17 18 20
78 76 77 80 83 84 85 87 88 87 84 90 92 92 96 83 64 68 45 40 54 67 73 46 34 24 20 20 27 17 17 20 20 21 20 20 20 19 19 20 15 19 19 18 20 20 29
79 89 90 87 98 98 96 83 80 80 79 77 77 91 98 95 85 65 42 42 62 72 92 43 30 21 20 22 22 25 17 19 24 22 20 32 26 26 26 23 14 23 20 19 19 22 23
92 98 100 100 99 97 97 93 87 80 75 71 70 69 86 92 85 65 46 45 69 82 94 42 29 29 26 24 22 23 21 17 19 20 20 21 19 20 22 22 19 24 21 22 21 24 71
70 91 96 96 94 99 100 96 95 94 87 70 64 62 68 98 75 65 64 60 77 85 38 43 36 28 27 37 29 24 27 25 32 36 41 25 24 22 20 24 22 21 21 90 80 81 73
96 96 95 98 100 99 98 100 100 98 91 84 65 45 64 86 77 65 56 58 84 44 37 31 29 30 42 35 34 26 26 31 26 20 30 51 71 31 22 21 23 24 21 88 96 97 92
96 95 94 90 95 100 99 99 99 97 89 85 77 64 66 68 68 46 59 82 66 45 42 41 49 55 54 27 24 25 31 37 26 20 43 54 59 24 22 18 18 24 29 23 65 54 77
94 94 93 91 86 96 96 93 93 87 79 77 99 90 64 63 52 55 57 68 57 45 46 44 67 57 70 58 39 46 70 36 25 17 14 22 50 28 29 23 24 23 20 38 60 96 95
90 88 87 85 89 91 89 92 96 94 78 74 92 69 46 49 44 59 73 67 51 41 36 44 56 65 74 90 90 92 90 54 23 20 16 18 39 46 32 36 37 30 30 28 56 96 96
92 91 90 89 89 86 78 76 92 95 86 78 74 77 57 33 66 63 67 50 47 48 38 46 61 76 93 83 98 98 99 60 22 22 23 24 55 85 54 30 30 30 34 26 73 93 87
90 89 87 87 84 83 75 73 76 73 82 97 85 68 55 57 78 62 50 49 53 55 55 60 71 81 86 97 99 100 77 32 28 34 95 76 95 96 68 32 48 47 33 30 31 45 94
88 87 86 85 88 86 85 85 73 68 92 84 94 74 70 68 69 79 80 72 74 84 88 88 100 98 97 92 94 98 91 62 30 56 66 73 97 96 92 75 64 88 67 36 41 88 82
84 83 83 82 88 91 91 94 94 86 78 83 92 74 64 82 73 72 67 96 92 96 79 82 99 90 82 93 77 81 68 66 50 40 47 71 96 81 79 75 73 75 74 62 56 58 71
82 82 78 79 89 94 93 96 92 87 80 89 90 82 74 86 72 72 80 83 71 60 62 76 96 80 86 93 73 95 81 95 98 67 61 88 92 76 89 68 69 76 63 64 65 57 53
79 81 76 84 92 96 95 91 86 88 88 84 74 78 95 88 80 96 92 89 71 72 70 66 74 93 98 94 90 91 95 97 98 97 96 96 94 94 88 58 85 89 69 59 61 55 56
77 81 74 81 89 90 91 93 83 84 76 90 89 92 98 91 94 94 80 60 80 89 94 89 96 99 99 91 97 98 98 97 91 90 87 95 96 95 94 70 95 53 33 33 40 44 39
79 80 76 74 73 82 84 91 87 84 80 89 82 89 99 94 80 80 71 76 81 74 92 77 80 99 96 98 98 97 94 84 77 82 95 97 96 95 95 88 76 62 43 38 40 38 34
80 76 82 75 73 89 83 86 94 85 84 90 83 82 91 98 88 96 98 96 91 84 79 90 91 88 98 96 97 95 75 61 89 71 70 96 96 96 96 96 94 52 36 29 33 83 33
79 76 81 75 73 94 96 85 83 80 81 86 87 81 89 96 77 71 89 98 92 87 92 80 96 97 89 94 88 80 78 65 89 93 87 92 96 93 89 95 87 39 34 31 91 87 34
81 76 84 79 74 91 99 99 94 82 76 80 87 79 86 97 93 70 66 79 90 93 96 92 91 96 95 97 95 93 94 81 90 74 89 88 94 94 89 96 92 34 35 82 88 76 36
81 75 86 79 73 79 94 98 86 92 79 79 95 79 83 95 86 80 86 88 83 80 88 90 86 91 97 96 96 90 95 87 81 90 58 93 84 91 87 70 50 44 91 82 83 95 51
Wind_Speed
19 19 21 22 22 23 25 26 27 28 30 31 32 33 32 31 31 22 19 17 15 14 14 14 12 11 7 5 3 9 13 12 7 7 5 6 8 8 7 2 2 6 3 3 6 3 6
21 21 21 22 22 24 25 25 26 27 29 30 32 33 35 34 34 25 18 18 19 17 15 13 11 9 4 7 1 8 7 6 11 11 5 5 6 9 4 3 2 6 5 3 4 4 1
23 23 23 24 23 23 23 23 24 25 27 29 30 32 35 36 37 26 23 28 24 20 18 13 8 4 6 7 0 7 8 4 6 5 4 5 7 4 6 1 4 1 3 6 9 7 3
20 20 21 22 23 23 24 24 24 26 28 29 31 33 35 38 38 26 31 29 19 14 9 8 6 4 5 3 1 5 6 1 3 2 2 1 1 2 3 4 3 4 4 4 5 11 6
19 20 20 20 22 23 24 24 25 27 27 29 30 32 33 35 37 26 30 26 10 8 3 1 2 5 4 1 1 5 6 3 6 2 1 1 2 1 3 3 4 6 5 8 4 11 6
20 20 21 23 22 23 24 25 25 26 27 29 30 31 33 35 36 27 28 17 8 3 4 2 5 3 3 1 3 5 6 3 2 3 3 3 3 2 3 4 5 2 5 6 6 8 9
20 21 22 24 24 25 24 26 27 28 29 29 29 31 32 32 34 24 26 8 5 1 3 5 3 5 2 6 2 3 4 5 4 4 4 1 3 7 9 8 11 2 5 9 5 5 6
19 21 21 23 24 24 25 26 26 27 29 30 30 31 32 31 26 18 11 4 1 3 9 6 5 4 1 0 2 4 7 3 4 5 5 2 9 2 4 3 3 5 7 8 1 4 1
19 20 20 22 23 24 25 25 26 27 28 30 31 31 32 32 17 8 7 4 3 2 6 3 2 2 2 1 3 2 5 2 2 6 7 7 2 3 2 1 2 4 6 6 3 3 9
18 20 21 23 24 25 25 26 27 27 29 30 30 30 31 35 4 18 1 10 4 1 4 5 4 4 4 1 3 1 2 1 4 4 3 6 3 1 1 4 4 3 4 4 4 5 4
20 21 21 22 23 25 26 27 28 29 30 31 32 30 29 21 15 8 4 12 6 2 7 2 4 3 4 3 2 3 2 3 5 2 2 4 5 3 5 3 1 1 3 3 1 4 5
21 22 23 24 24 25 26 27 29 29 30 31 31 29 28 15 14 9 12 9 2 2 8 2 4 3 4 6 5 4 3 3 2 2 5 1 2 3 3 4 3 5 3 4 3 2 3
23 23 24 24 24 25 26 26 26 29 31 31 31 29 28 13 5 13 11 4 4 5 2 3 2 3 3 5 6 6 5 5 5 2 6 4 3 3 2 4 2 0 2 2 2 1 7
21 22 24 24 25 25 26 27 28 28 30 33 33 29 20 14 11 10 2 3 7 7 9 4 1 3 5 3 4 5 3 4 11 3 2 4 5 8 7 3 2 6 2 3 5 3 4
21 22 23 24 26 26 28 29 30 31 30 30 32 21 15 10 6 2 2 4 5 4 4 8 9 7 13 3 1 3 7 4 2 9 7 4 6 3 5 2 1 5 4 1 1 5 3
22 23 24 24 25 25 27 28 29 31 33 28 23 12 9 4 1 4 2 8 10 9 7 3 6 8 12 8 2 4 4 4 2 5 6 4 4 2 4 1 4 0 1 2 1 4 6
23 24 23 23 24 26 27 28 29 28 31 21 8 5 2 2 5 3 4 6 9 4 3 2 4 10 10 4 4 5 5 2 2 3 3 4 3 3 4 8 8 4 3 5 1 2 4
23 25 26 26 26 27 28 28 28 29 30 18 6 4 2 1 3 3 5 5 5 1 4 1 2 5 5 5 4 4 5 3 7 3 3 5 5 4 6 4 4 1 6 6 4 4 4
26 27 27 27 28 28 27 26 25 25 26 18 4 6 10 4 4 5 11 17 9 3 1 2 3 2 2 2 5 2 4 4 4 1 4 1 3 4 3 1 4 1 4 7 5 2 5
27 28 29 30 29 27 25 23 23 25 22 20 3 4 2 3 4 5 9 11 9 3 2 1 2 0 1 3 7 3 3 3 5 5 5 1 4 6 11 14 8 7 7 9 12 4 5
28 29 30 30 30 28 24 22 20 21 21 14 3 4 5 4 6 11 11 6 7 7 3 4 2 8 7 4 4 6 9 7 5 6 5 4 6 8 14 17 17 20 20 12 20 27 15
30 30 32 30 28 28 25 22 19 19 18 5 4 4 3 7 12 13 11 9 16 17 16 11 7 12 9 10 13 12 14 7 3 2 6 4 4 4 7 13 17 17 16 18 21 25 24
31 31 34 33 30 25 23 24 18 16 14 5 5 11 5 5 6 7 5 9 15 15 7 13 13 14 11 11 5 8 7 9 7 8 11 6 4 3 10 6 6 8 12 16 8 15 9
31 31 31 31 29 26 24 23 20 17 16 13 14 12 5 11 8 7 12 18 15 11 15 12 10 11 2 3 4 6 9 13 13 15 11 7 5 1 5 3 5 7 2 1 3 6 6
32 31 30 30 30 29 26 25 23 20 14 12 16 6 3 8 7 14 15 16 13 10 7 11 4 3 5 3 4 5 3 3 5 6 8 3 3 3 3 4 9 11 3 2 3 3 5
31 31 30 30 30 29 27 26 24 22 15 11 14 13 6 6 4 9 9 9 14 12 11 2 2 0 0 0 2 3 5 12 4 2 4 5 2 2 2 4 5 2 4 3 3 4 7
30 31 28 28 30 29 25 22 20 16 13 10 11 14 8 6 10 13 10 7 5 5 4 5 3 1 1 2 3 5 8 4 3 4 6 2 3 11 9 5 8 3 6 4 1 2 6
30 31 28 26 28 27 24 20 19 18 15 13 15 17 11 5 10 14 15 16 9 7 7 2 4 1 2 2 3 3 2 4 1 4 6 7 7 4 4 5 9 5 3 4 2 3 3
30 31 28 24 25 25 24 22 19 20 16 15 14 16 16 8 10 30 30 28 27 25 11 5 6 7 4 4 2 1 3 1 4 7 3 1 6 3 7 6 2 5 2 4 3 1 2
Wind_Direction
35 33 31 31 29 28 25 23 22 20 18 16 14 12 8 2 357 347 343 331 311 309 308 312 312 318 332 232 247 332 349 355 3 345 282 285 264 247 268 267 88 249 143 34 53 42 300
36 35 33 34 33 29 26 22 19 16 14 11 9 7 5 2 356 349 342 332 319 303 292 291 314 316 232 260 156 346 7 19 6 354 334 314 326 320 292 28 251 3 40 148 160 195 227
38 33 31 26 26 24 21 18 15 12 8 6 5 2 1 359 356 349 342 334 323 304 286 277 291 291 257 257 281 355 2 25 35 36 323 19 323 310 354 156 41 349 263 194 205 186 220
30 24 20 17 14 12 10 8 6 3 1 359 358 359 359 357 355 352 342 334 330 327 299 275 271 277 262 219 211 7 4 183 357 25 119 203 321 128 333 125 186 232 230 262 118 163 149
17 13 10 9 6 3 1 359 357 356 355 353 352 352 354 353 353 349 347 339 344 348 354 231 254 221 290 89 19 344 354 335 305 253 232 212 295 13 173 213 249 204 243 204 181 188 135
4 3 0 357 356 353 353 353 349 348 347 345 345 346 347 350 348 349 351 335 337 9 353 248 261 294 159 46 338 316 329 316 303 282 229 230 200 210 221 185 220 226 241 250 223 207 203
1 360 357 352 349 348 349 349 348 345 343 342 340 340 343 347 345 349 358 338 340 234 343 241 289 277 101 341 290 187 348 313 223 229 223 178 209 216 215 221 283 0 275 266 286 170 201
358 353 350 346 347 350 349 347 348 346 344 343 340 339 338 340 340 345 14 50 89 284 302 203 258 272 131 153 252 129 2 247 188 241 133 167 231 47 57 12 329 287 274 270 89 125 181
355 354 355 354 352 351 350 349 346 343 340 338 339 340 340 339 336 350 20 36 321 293 276 204 179 244 96 274 327 78 341 47 276 261 207 232 61 73 36 294 307 247 240 279 305 295 219
352 351 351 353 353 351 350 348 348 347 344 342 342 338 339 340 1 332 18 337 332 261 288 183 192 162 173 151 249 50 359 310 200 242 336 253 71 115 147 244 193 255 8 29 4 3 258
352 353 352 350 350 348 345 343 344 343 343 344 343 340 339 346 309 319 325 336 333 269 315 96 148 137 119 240 115 167 150 167 268 222 128 239 158 157 193 191 129 172 29 44 329 255 315
355 354 352 351 348 343 342 340 341 339 339 338 339 340 335 340 314 277 315 331 304 268 251 142 125 168 213 182 193 136 216 207 46 272 222 302 36 335 22 62 23 141 184 186 198 247 267
352 350 350 346 344 346 345 340 340 340 338 335 334 331 323 308 283 302 324 277 288 225 243 165 193 183 221 214 195 187 190 189 198 210 220 144 172 107 156 135 107 267 255 324 236 250 240
353 353 351 348 347 347 345 344 344 340 338 337 332 329 315 282 264 298 244 232 245 272 290 69 8 221 229 142 210 186 244 257 207 138 289 236 273 172 169 205 157 185 257 189 278 282 298
351 351 350 347 347 346 346 345 345 343 339 339 334 325 292 258 266 172 243 219 246 345 10 350 326 263 285 86 321 233 225 269 53 188 192 227 212 115 183 107 179 157 196 143 177 228 269
348 348 346 345 343 343 345 346 344 344 345 342 329 306 272 257 217 171 207 244 269 298 342 258 281 265 282 278 199 215 333 15 67 12 24 340 286 171 117 96 264 137 338 100 262 229 241
340 338 338 338 340 342 343 344 347 345 347 346 319 304 302 274 153 226 229 232 266 288 20 288 309 291 281 287 262 252 232 281 45 107 3 343 218 134 139 201 177 153 225 229 254 218 227
339 339 339 340 341 340 342 343 344 351 350 357 308 283 317 97 276 239 236 268 340 31 60 268 20 263 266 320 280 250 246 208 68 127 15 21 5 275 215 78 57 101 208 175 173 211 246
337 336 336 338 339 337 338 340 343 341 351 344 288 276 245 159 256 252 265 270 289 327 30 24 274 288 30 279 287 257 312 18 22 359 153 47 237 295 211 88 17 254 209 225 253 154 229
335 332 331 329 326 330 333 334 337 339 344 347 287 300 206 192 275 298 302 288 294 84 264 61 287 325 275 243 206 280 273 227 179 166 193 299 244 226 267 280 296 257 225 230 223 222 223
329 328 326 321 322 318 322 330 333 333 337 342 268 260 323 285 288 317 303 313 298 282 189 172 230 239 245 264 275 237 242 238 190 223 179 172 247 222 253 270 272 267 268 235 217 229 234
325 324 324 321 318 319 316 318 326 329 333 287 288 310 331 308 307 300 294 289 295 286 292 292 223 264 261 262 252 277 292 240 262 168 159 208 266 270 266 262 254 271 276 254 243 241 242
321 319 322 320 321 319 320 320 314 322 336 283 309 306 305 297 286 277 287 291 294 295 272 297 308 317 282 271 287 300 283 275 252 168 194 188 218 244 275 298 345 283 246 244 250 241 233
317 315 317 316 315 315 315 315 305 303 312 292 284 294 260 281 297 286 282 294 293 298 301 296 305 285 0 342 278 251 235 248 245 243 204 192 187 232 284 350 247 235 184 1 285 294 272
310 309 312 314 312 312 310 310 305 303 298 313 300 278 265 276 266 286 289 300 300 296 273 284 312 4 329 331 297 277 261 255 252 231 227 154 130 255 257 235 292 293 98 96 57 308 17
303 306 308 313 310 310 304 304 301 299 286 297 298 293 270 298 225 300 313 301 295 286 289 175 119 9 18 328 266 277 287 277 233 175 45 165 204 245 244 241 255 212 168 175 156 262 334
300 303 303 310 310 316 309 301 305 300 277 278 281 288 272 267 265 256 264 277 327 322 277 288 158 208 35 248 250 253 250 242 231 217 177 164 214 222 235 256 280 92 145 170 180 276 321
298 300 298 302 306 311 313 303 304 307 284 280 279 287 274 277 280 261 272 277 285 263 265 270 309 50 163 216 260 277 278 265 324 235 176 179 178 197 191 221 264 140 105 204 81 344 341
295 294 293 294 297 304 309 307 302 302 296 285 284 293 290 252 272 283 276 267 255 253 262 217 262 262 226 239 268 306 299 279 240 270 138 292 191 197 199 221 95 182 114 116 110 201 311